Location: Brabourne
(51.1333°N, 1.0000°E)
Time: 08:35:36
(UTC+00:00)

NOSS 3-1 (A) - Pass Details

Date: 20 June 2021
Orbit: 729 x 1483 km, 63.4° (Epoch: 23 July)

Event Time Altitude Azimuth Distance (km) Brightness Sun altitude
Exits shadow 02:30:06 - 255° (WSW) 3,140 5.7 -8.2°
Reaches altitude 10° 02:31:59 10° 261° (W) 2,477 5.2 -8.1°
Maximum altitude 02:37:26 43° 333° (NNW) 1,315 4.5 -7.6°
Drops below altitude 10° 02:43:57 10° 44° (NE) 2,953 7.8 -6.9°
Sets 02:47:03 0° 51° (NE) 4,040 8.8 -6.6°
